GFSWCAN_925_thetae_114.txt.gz
Theta_e
300 301 301 302 303 303 304 305 304 306 307 307 307 304 309 311 313 315 313 309 306 306 303 305 308 308 307 310 311 306 308 306 308 312 314 313 314 312 312 312 310 312 312 311 311 314 317 312 310 311 314 311 310 312
300 300 301 301 302 303 303 304 305 306 307 306 306 306 306 308 309 312 310 309 306 308 308 302 305 307 309 309 308 307 312 309 310 312 309 310 311 310 314 315 309 314 313 316 314 318 314 311 314 311 311 313 312 312
300 300 301 301 301 302 303 303 303 305 306 306 307 307 305 305 310 310 312 305 306 307 308 306 305 306 305 307 307 309 305 307 307 308 308 310 313 310 313 313 313 310 309 313 314 315 312 311 311 311 310 311 312 311
300 300 300 301 301 302 303 303 303 304 306 306 306 306 306 305 306 308 309 308 308 309 312 309 303 305 306 305 305 305 304 302 304 306 309 311 313 309 313 312 312 312 310 312 313 313 311 311 311 312 312 311 311 310
299 300 300 300 301 301 302 303 304 304 305 306 306 304 305 306 306 309 310 311 310 313 313 306 301 304 305 304 303 303 304 305 307 307 309 312 309 309 305 306 310 308 312 313 314 314 314 314 311 311 311 311 310 310
299 299 300 300 300 301 301 302 303 303 305 305 304 303 304 306 305 305 310 309 310 309 306 309 302 303 303 303 303 303 304 304 306 308 309 307 305 309 312 310 309 308 309 311 312 313 311 311 308 307 308 308 308 308
299 299 300 300 300 301 301 302 303 302 302 303 303 303 304 306 305 306 309 309 310 308 304 303 304 302 302 303 303 304 303 305 306 307 308 308 307 306 311 310 307 306 308 309 310 310 309 308 308 307 306 307 307 307
299 299 299 300 301 301 301 302 302 302 302 303 303 301 303 304 303 304 304 305 308 304 304 304 304 305 303 306 306 304 306 306 305 307 305 307 306 306 311 307 306 306 306 307 308 308 309 310 307 307 306 306 306 307
298 298 299 300 301 301 301 302 302 301 302 301 302 302 302 301 304 305 305 307 305 302 302 303 307 308 303 305 305 305 307 309 303 308 307 307 308 310 307 306 305 305 305 306 306 307 307 306 307 307 306 305 305 306
298 299 300 300 301 301 301 302 302 301 301 301 301 302 303 303 304 306 302 299 299 297 300 307 305 306 305 306 307 308 308 310 309 307 304 307 307 306 306 306 306 306 306 306 306 306 306 306 306 306 307 306 306 305
297 298 300 300 301 301 301 302 302 302 300 301 302 303 303 303 302 301 300 301 299 302 300 302 304 304 302 306 307 306 309 307 308 307 308 309 307 305 304 305 305 306 306 306 307 306 307 306 306 306 306 305 304 304
301 298 299 300 300 301 301 302 301 301 300 301 302 300 299 297 298 301 303 302 305 307 303 304 303 305 302 305 306 304 308 305 309 303 306 307 307 306 305 306 306 307 306 306 306 306 305 305 305 305 305 305 303 303
301 299 299 301 301 301 300 301 301 301 301 301 301 301 300 300 301 305 305 306 307 304 302 303 304 303 303 304 305 306 307 309 303 305 307 306 307 306 307 308 308 307 306 306 305 305 304 304 303 303 304 303 303 302
300 301 300 301 301 301 301 300 300 301 300 302 301 302 302 303 302 305 305 306 304 304 303 306 306 306 305 307 307 309 306 304 308 307 307 308 306 307 308 307 305 304 303 303 303 303 303 303 303 302 301 302 302 302
300 299 299 301 301 301 300 300 300 300 299 300 300 302 303 302 302 303 303 302 302 303 305 305 306 306 306 307 306 303 304 309 309 309 309 308 307 307 306 305 305 305 304 303 303 302 302 302 302 301 301 301 302 301
300 300 301 300 301 301 300 300 300 299 298 299 299 302 302 303 304 302 303 303 302 303 305 306 308 308 309 309 307 308 308 308 309 306 307 307 306 306 305 303 304 304 303 302 302 302 302 301 302 302 301 301 301 301
300 300 301 300 301 300 300 299 298 299 299 299 301 300 302 302 303 303 304 303 303 304 306 308 309 309 307 309 308 309 309 309 307 307 306 305 306 304 302 301 301 301 301 301 301 301 301 300 300 300 301 300 300 299
299 299 301 301 301 299 298 296 297 299 298 299 301 301 300 300 302 303 303 302 304 305 306 307 305 307 308 309 309 308 305 305 306 307 307 305 303 302 300 302 300 300 301 301 301 300 300 300 301 302 301 299 298 298
299 299 299 300 298 296 294 295 296 300 298 299 300 300 301 301 300 303 303 302 303 302 303 304 306 309 308 306 307 307 305 305 308 306 304 302 301 300 300 300 300 300 301 300 300 301 301 301 302 300 299 299 299 298
299 300 300 299 298 296 297 295 294 297 300 300 299 300 301 301 301 302 303 303 303 303 304 305 307 306 306 305 304 306 305 306 305 305 304 302 300 300 300 300 301 300 299 298 298 298 298 297 298 298 299 299 298 297
299 300 299 298 296 296 296 295 297 298 299 299 300 301 302 301 303 303 303 303 302 303 305 304 304 303 301 301 301 301 302 302 305 307 307 303 300 300 299 299 298 298 299 299 299 298 298 299 297 297 297 298 298 297
298 299 297 297 294 294 297 296 298 298 300 301 301 302 303 303 304 303 303 302 304 305 304 304 303 304 302 302 302 301 301 300 300 301 300 300 299 299 299 299 298 299 299 299 299 299 297 296 296 296 296 295 295 295
296 294 295 295 296 296 296 296 300 300 301 301 302 303 304 303 303 303 305 303 304 303 304 303 302 302 302 300 299 299 298 300 301 301 300 301 300 300 299 297 299 299 298 297 297 297 296 295 295 295 295 295 295 294
295 294 298 298 296 296 296 298 297 301 302 303 304 305 303 304 303 304 305 304 304 300 302 303 303 303 301 300 302 301 300 300 300 299 297 298 299 298 298 297 297 298 298 295 296 296 296 295 295 295 295 295 295 294
298 297 298 297 294 297 298 299 299 301 304 303 303 302 303 302 304 305 304 303 303 302 303 304 303 304 304 303 302 301 299 299 300 300 297 298 298 296 296 296 296 295 295 295 296 296 295 295 295 295 295 295 294 294
299 297 298 296 296 297 298 299 299 301 302 303 303 302 302 303 303 303 302 303 302 303 303 304 304 304 304 303 304 302 301 299 299 300 297 297 298 299 298 298 297 294 295 296 296 296 295 295 295 295 295 294 294 294
294 296 295 293 295 296 298 298 298 300 301 302 302 302 302 303 303 303 301 299 302 302 303 303 304 304 304 303 302 302 300 299 300 300 298 297 298 298 298 299 298 297 294 295 296 296 295 295 295 295 295 294 294 294
294 295 297 295 296 296 298 300 300 301 300 298 300 301 302 302 303 302 301 299 299 300 302 303 303 303 304 303 302 300 298 297 297 296 295 295 296 297 297 298 298 298 295 295 296 295 295 295 295 295 294 294 293 293
297 295 295 296 296 298 299 301 301 300 299 300 301 301 300 298 297 298 297 296 296 300 302 303 302 302 302 302 300 299 297 297 299 299 300 299 297 296 297 298 296 295 295 295 295 296 295 295 295 295 295 294 293 292
296 295 297 297 296 297 298 297 298 296 296 298 297 296 295 295 294 293 292 295 299 301 302 303 302 302 302 301 300 298 298 300 302 302 302 300 300 297 297 296 295 294 295 295 294 294 294 294 294 293 293 292 292 292
295 296 296 296 296 293 293 292 292 293 293 295 293 296 297 295 294 292 291 293 297 299 301 301 302 302 302 302 301 300 300 298 300 301 302 301 300 298 297 296 295 295 295 294 294 294 294 294 293 293 292 292 292 292
295 296 297 297 296 293 291 294 294 295 294 295 295 293 295 296 299 298 293 293 297 299 300 301 301 301 301 301 301 301 302 302 299 300 300 301 299 298 297 296 295 295 295 294 295 294 294 294 293 293 293 292 292 292
293 293 294 294 295 296 294 294 293 294 293 294 294 293 295 297 299 297 294 294 297 299 299 300 300 301 301 301 301 301 301 302 302 301 301 301 301 299 297 296 295 294 295 295 294 294 293 294 294 293 293 293 293 292

GFSWCAN_925_thetae_117.txt.gz
Theta_e
300 300 301 301 301 302 302 303 304 305 306 307 307 306 307 307 308 311 312 313 311 312 313 311 310 311 311 313 313 310 309 310 311 315 315 315 316 315 316 317 314 315 316 315 315 317 320 315 311 314 317 314 313 313
300 300 300 301 301 301 302 303 303 304 305 304 305 305 306 306 307 309 310 308 310 311 313 307 305 305 310 312 312 310 312 312 313 314 315 316 316 316 316 317 314 316 316 318 317 319 317 314 316 314 314 315 314 314
300 300 300 300 301 301 302 302 303 304 304 303 304 304 306 306 306 309 309 306 308 308 309 309 310 305 306 308 310 311 312 313 313 314 314 315 315 315 316 315 316 314 315 316 316 316 315 315 314 313 313 314 314 315
299 299 300 300 301 301 301 302 303 304 304 303 303 304 304 305 305 306 307 306 309 310 313 311 310 305 306 306 307 309 311 308 312 312 313 315 316 313 315 315 316 315 313 314 315 315 315 314 314 314 314 314 313 313
299 299 300 300 300 301 301 302 302 303 304 303 303 305 305 306 306 305 308 307 309 311 310 310 309 307 305 305 305 307 309 309 310 311 313 314 313 313 313 313 315 313 315 315 316 315 315 316 315 315 314 314 314 313
299 299 299 300 300 301 301 302 302 303 303 304 304 305 304 305 306 307 309 308 308 309 308 309 304 307 305 305 305 307 309 310 311 311 311 311 310 312 317 313 312 313 313 314 315 313 313 314 314 311 312 312 312 312
298 299 299 299 300 300 301 301 302 302 302 302 303 303 303 304 305 306 308 307 309 308 306 304 306 304 305 306 306 306 307 308 309 310 310 311 310 309 315 315 311 311 312 311 311 311 311 311 312 310 309 310 310 309
298 298 299 299 300 300 301 301 302 302 301 302 303 303 303 304 305 305 305 305 307 304 305 305 306 305 304 307 307 307 307 308 308 309 309 310 309 309 315 310 310 310 309 308 309 310 310 310 311 311 310 309 309 309
297 298 299 299 300 300 301 301 302 302 302 302 303 303 302 302 304 305 305 304 305 303 302 303 308 311 304 307 307 307 307 308 308 309 308 309 310 314 311 311 310 309 309 308 308 308 309 309 309 309 310 309 308 309
297 298 299 299 299 300 301 301 302 302 301 300 300 301 303 303 304 305 303 303 301 300 302 307 309 307 308 307 308 308 308 311 312 310 310 311 312 311 310 308 308 308 308 307 307 308 308 308 308 308 309 309 309 308
297 298 298 299 299 300 301 301 302 301 301 301 299 303 303 304 305 305 302 304 300 302 300 306 307 308 308 310 309 308 310 309 310 311 309 310 312 310 309 308 308 308 308 308 308 308 308 308 308 309 308 308 308 309
297 297 298 298 299 300 301 301 301 301 300 298 302 301 302 299 299 304 304 304 304 308 304 309 307 307 307 307 308 306 309 308 310 308 309 311 311 309 308 307 307 308 309 308 308 308 308 308 308 308 308 308 307 307
300 301 300 299 299 300 301 302 301 301 299 299 301 302 302 300 303 306 306 307 309 306 305 308 307 304 305 307 308 310 310 309 307 308 309 308 311 310 309 308 308 308 308 308 307 308 308 308 307 307 307 306 306 306
301 301 301 299 299 301 301 300 300 300 299 298 301 302 303 304 304 306 306 308 307 307 306 308 307 307 307 308 309 311 309 307 310 311 312 311 310 309 309 309 309 309 309 309 309 308 308 307 307 306 305 305 305 305
299 300 300 299 300 301 300 299 300 300 298 299 301 303 303 303 304 304 304 304 304 305 306 307 307 308 310 309 310 307 307 311 311 312 312 312 310 310 309 309 309 309 307 307 307 306 306 305 305 305 304 304 304 304
300 300 300 300 300 300 300 299 301 299 299 299 299 302 303 303 304 303 304 305 305 305 306 307 307 309 310 310 309 310 311 311 312 311 311 312 311 310 309 308 308 308 307 306 305 305 305 304 304 304 303 304 304 304
300 301 301 300 301 300 300 299 297 297 298 300 299 302 303 303 304 305 305 305 304 305 307 306 309 310 310 310 310 311 312 312 312 311 309 310 310 309 309 308 307 306 306 305 304 304 304 304 304 304 304 303 303 303
300 299 301 300 300 300 297 295 297 299 300 299 302 303 301 302 303 303 303 304 304 305 307 309 308 310 310 311 312 311 309 311 310 309 310 309 309 307 306 306 305 304 304 304 304 303 303 303 304 304 303 303 302 302
300 298 301 301 299 297 296 294 294 299 299 299 301 302 302 302 301 302 304 302 302 304 306 307 310 310 309 308 309 310 310 309 309 309 309 308 307 305 305 304 304 304 304 304 304 304 304 303 304 304 303 302 302 301
299 299 300 299 299 297 297 296 294 299 300 301 301 301 301 302 302 303 303 302 300 302 303 305 310 310 309 308 307 309 308 308 309 310 309 306 305 304 304 304 304 304 304 304 303 303 303 303 303 303 302 303 302 301
300 297 296 297 295 296 297 296 295 298 300 300 301 301 302 302 303 304 303 301 300 303 305 307 308 305 304 304 304 304 305 306 308 309 311 310 305 305 304 304 303 303 303 303 302 303 303 303 302 302 302 302 301 301
297 297 297 296 294 294 297 297 299 298 299 300 300 302 303 303 304 304 302 301 303 304 304 306 306 306 305 305 304 303 303 303 304 303 303 305 304 304 303 303 303 304 303 304 303 302 302 301 301 301 301 301 300 299
297 294 293 295 297 298 297 296 300 299 301 301 302 303 303 304 304 304 305 305 305 304 304 305 305 304 304 303 301 301 301 302 303 304 303 304 304 303 303 302 303 304 304 302 302 301 300 299 300 300 300 299 298 297
296 294 298 298 299 297 295 298 298 300 299 301 302 303 304 303 304 305 305 304 304 304 305 305 305 305 304 304 304 304 302 302 303 302 301 302 303 302 301 301 302 302 301 300 300 299 298 299 298 298 298 298 298 297
298 298 298 299 297 297 298 299 298 299 302 302 304 304 303 303 306 304 304 303 304 305 304 304 305 305 305 305 305 304 301 302 303 303 300 301 301 300 300 300 300 300 299 299 299 299 299 298 298 298 298 298 298 297
301 298 300 298 298 299 299 299 299 300 301 303 304 303 302 305 305 305 304 303 304 305 305 305 305 305 305 304 305 305 303 301 302 303 301 300 300 301 300 300 299 298 298 299 299 299 298 298 298 298 298 298 297 297
299 298 297 296 298 298 299 299 300 301 302 302 303 302 303 304 304 304 304 304 305 305 305 305 305 305 305 304 304 304 302 301 302 302 301 299 300 301 301 301 300 299 298 299 299 299 298 298 298 298 298 297 297 296
298 297 298 297 298 299 300 300 301 302 302 302 303 304 304 304 305 304 304 303 302 303 303 305 305 305 305 305 304 302 300 299 298 297 297 298 299 299 300 300 300 299 298 298 299 299 298 298 298 298 297 297 296 296
297 297 297 297 299 299 301 301 301 302 302 302 302 302 303 302 301 301 301 300 299 300 302 304 304 304 304 305 304 302 299 300 301 301 302 301 299 298 298 298 298 297 297 297 298 298 298 298 298 297 297 297 296 295
298 297 299 298 298 300 300 300 301 300 300 301 300 299 299 299 298 296 296 297 299 301 303 304 304 304 305 305 304 302 300 301 304 304 304 303 302 299 298 297 296 296 297 297 297 297 297 297 297 297 296 295 294 294
298 298 298 299 300 299 298 296 296 296 297 298 297 299 300 299 297 295 294 296 299 301 303 304 304 304 305 304 303 302 302 301 303 304 304 303 301 299 298 298 297 296 297 297 296 296 296 296 296 296 295 295 294 294
297 298 299 299 299 296 294 297 298 299 297 298 299 296 297 297 300 300 295 295 298 301 302 303 304 305 303 303 303 302 302 301 301 302 302 302 300 299 298 297 297 297 296 296 296 296 296 296 296 296 295 295 294 294
296 296 297 297 297 297 296 297 297 298 297 298 298 297 298 299 301 300 295 295 299 301 301 302 302 303 303 303 303 303 303 303 301 300 301 302 302 299 298 297 297 296 296 296 296 296 296 296 296 295 295 295 294 294

GFSWCAN_925_thetae_120.txt.gz
Theta_e
300 300 300 301 301 301 301 302 302 303 304 304 305 306 306 305 305 308 308 307 311 313 315 315 315 314 309 309 311 309 309 309 311 315 316 317 318 316 317 315 313 313 315 313 314 318 318 312 310 312 315 314 313 313
299 300 300 300 301 301 301 302 302 303 303 304 305 305 307 306 305 307 308 309 310 313 314 313 313 315 306 304 310 309 311 310 311 314 316 316 317 317 317 317 314 316 317 317 316 317 316 311 316 312 315 313 312 313
299 299 300 300 300 300 301 301 302 302 303 304 305 305 305 304 304 306 307 308 308 309 312 309 312 313 312 307 307 310 310 311 312 313 315 316 317 315 315 315 315 314 315 317 315 315 316 313 313 312 313 314 313 313
298 299 299 300 300 300 301 301 302 302 303 303 302 303 304 304 304 307 306 307 309 311 315 312 311 312 313 309 306 306 308 311 312 312 315 316 317 313 313 313 315 314 313 313 315 315 315 314 313 312 312 312 313 313
298 299 299 299 300 300 300 301 301 302 302 303 303 304 303 303 304 305 305 306 308 311 312 312 310 309 309 309 306 305 307 310 311 312 314 316 314 312 312 313 313 312 312 314 314 313 314 314 313 312 312 313 312 312
298 298 299 299 300 300 300 301 301 302 302 302 301 304 302 304 304 305 307 307 306 308 308 311 305 310 306 306 305 306 307 310 311 312 312 312 311 312 313 312 312 312 313 312 313 313 313 313 313 313 312 312 312 312
298 298 298 299 299 300 300 301 301 302 302 303 301 302 302 304 305 305 306 307 307 308 306 305 307 305 309 306 307 306 307 309 310 310 311 310 310 311 314 313 310 310 311 311 311 312 311 310 310 309 310 310 312 311
297 297 298 298 299 299 300 300 301 301 302 301 301 302 302 303 302 302 302 304 308 306 306 305 305 305 306 306 307 306 307 307 308 310 309 309 308 309 311 308 309 309 309 309 310 309 309 308 308 308 308 307 308 307
296 297 298 298 299 299 300 300 301 301 301 301 303 303 303 303 304 303 303 304 304 303 303 302 308 309 306 306 306 307 307 309 307 309 308 309 310 311 310 307 308 309 309 308 307 307 307 307 307 306 307 307 307 307
296 297 297 298 298 299 300 300 301 301 300 302 301 299 304 302 304 305 302 299 301 301 301 305 307 307 306 307 307 307 308 309 311 307 307 307 308 308 308 308 308 308 308 307 307 307 306 306 306 306 306 307 308 307
296 297 297 298 298 299 299 300 301 301 300 300 297 297 302 304 304 303 301 302 300 302 300 305 308 307 307 308 309 308 308 310 312 310 308 310 309 308 307 307 308 308 308 308 308 307 306 306 306 306 305 305 305 305
296 296 297 298 298 299 299 300 301 301 301 299 299 301 300 301 300 304 304 302 304 308 304 308 308 307 307 307 307 307 310 309 312 309 310 310 311 311 309 308 308 308 308 308 307 306 306 306 305 304 304 304 304 306
296 296 297 297 298 299 299 300 300 300 299 299 297 299 299 300 305 306 306 306 307 306 305 307 307 306 307 308 308 308 310 311 308 308 309 308 311 308 308 309 309 309 308 308 307 306 305 305 305 304 304 305 307 306
300 300 300 300 299 299 299 299 300 300 299 298 300 301 302 301 303 305 306 307 306 306 306 308 306 308 307 309 308 311 310 308 309 310 309 308 308 308 308 307 306 305 305 305 305 305 304 304 304 305 305 306 306 304
300 300 300 301 300 299 300 300 300 299 297 299 299 303 301 304 305 305 305 305 304 304 307 308 307 308 308 308 309 308 309 311 309 310 311 310 308 307 307 306 306 305 305 304 304 305 305 305 304 303 305 305 305 305
299 300 301 299 299 299 300 300 300 299 299 298 300 302 303 303 304 304 304 304 305 305 306 307 306 308 309 307 309 309 308 309 310 309 309 310 309 308 307 306 305 306 305 304 304 303 303 303 303 303 304 304 304 304
301 301 299 300 299 300 300 298 294 294 299 299 299 300 302 302 304 304 303 305 304 304 306 304 308 310 308 310 309 308 310 311 310 310 308 309 309 307 306 305 305 305 304 303 302 302 302 304 304 302 301 303 303 304
300 300 300 300 300 300 297 296 295 297 300 299 301 302 302 303 304 304 304 304 303 303 301 306 308 310 310 310 309 309 309 310 309 308 308 307 307 306 305 304 304 303 302 302 302 302 302 301 301 301 302 303 302 302
300 300 299 301 299 297 296 294 293 299 298 299 300 302 302 302 301 302 304 304 302 302 302 301 306 309 308 308 309 309 308 308 308 307 308 306 304 303 303 302 302 301 301 301 301 301 301 303 302 302 302 301 300 300
299 299 301 299 299 297 297 296 293 299 299 300 300 302 302 302 302 302 304 303 301 301 302 303 307 309 308 307 306 308 308 308 307 308 307 304 302 302 301 301 301 301 301 302 302 303 303 302 302 302 302 301 300 299
298 294 299 298 296 296 296 295 296 299 300 301 301 301 301 301 302 303 303 300 300 301 304 303 306 305 304 304 304 304 305 305 307 308 309 305 302 302 301 301 302 302 301 301 301 302 302 301 302 302 302 301 300 300
296 295 294 296 294 295 296 297 299 299 300 301 301 300 302 303 303 303 303 301 301 302 303 304 306 306 305 305 304 302 302 303 303 302 304 305 302 301 302 301 301 300 300 300 301 301 301 302 302 302 302 301 300 299
296 295 295 294 297 298 296 296 300 299 301 301 301 300 302 303 304 302 303 301 302 303 303 303 305 304 304 303 302 301 301 302 302 303 302 302 302 302 301 301 302 301 301 300 302 301 301 301 301 301 300 299 298 298
296 294 297 298 298 298 296 299 299 301 301 302 302 301 302 303 304 304 304 304 304 303 303 303 304 303 303 302 303 303 302 302 301 300 301 301 300 300 301 302 302 303 302 301 300 299 300 300 300 299 299 297 297 297
297 298 297 298 298 297 298 298 299 299 300 300 300 301 302 302 303 303 303 302 304 303 304 304 304 303 304 304 303 303 303 302 301 301 300 301 300 300 299 301 301 301 300 299 298 298 299 299 298 298 298 297 297 297
297 298 298 299 298 298 298 298 298 298 300 300 302 302 301 302 304 303 303 301 303 304 304 304 304 304 304 303 303 303 302 302 303 301 299 301 300 300 299 299 298 297 300 299 298 298 298 298 298 298 298 297 297 297
298 298 297 298 298 298 299 299 299 300 301 300 301 303 304 303 303 302 302 302 303 303 303 303 304 304 304 302 303 304 303 302 302 302 301 300 300 300 300 299 298 298 300 299 299 298 298 298 298 298 297 297 297 297
298 298 297 297 297 298 299 300 300 301 301 300 301 302 302 302 303 303 303 302 303 303 304 304 303 304 304 304 303 302 301 300 299 299 299 299 300 301 301 300 300 299 300 299 299 298 298 298 298 298 297 297 296 296
297 297 297 298 299 299 299 300 300 300 300 301 302 302 302 301 302 301 300 301 300 301 301 302 303 305 305 305 304 301 299 298 299 299 300 298 297 298 300 300 298 299 299 299 299 298 298 298 298 297 297 296 296 295
297 297 298 298 298 299 300 300 300 299 299 299 299 299 298 297 297 299 298 298 298 300 301 302 304 303 303 303 302 300 300 300 302 302 302 301 299 298 298 298 297 298 299 299 298 298 298 298 297 297 296 296 295 294
297 298 298 298 298 298 298 297 296 296 296 298 297 298 298 297 296 298 296 297 299 300 301 302 303 303 303 303 302 301 300 301 302 304 304 303 301 298 298 297 297 298 298 298 298 297 297 297 296 296 295 294 294 294
297 298 299 298 298 295 294 296 298 298 297 297 297 296 296 296 298 297 297 296 297 298 300 302 302 302 304 304 304 302 302 301 301 303 304 303 300 298 298 297 297 297 297 297 297 297 297 296 295 295 294 294 294 293
297 297 297 297 296 297 297 296 297 297 296 297 297 296 296 298 299 298 297 296 298 299 300 302 303 303 304 304 303 302 302 302 302 302 303 303 302 300 298 297 297 297 297 297 297 296 296 296 295 295 294 294 294 294

GFSWCAN_925_thetae_123.txt.gz
Theta_e
299 299 299 300 300 301 301 301 302 302 302 303 303 304 305 305 305 305 306 306 307 309 309 310 313 315 309 308 308 307 309 308 308 311 312 312 312 312 311 309 308 307 307 307 309 312 314 309 309 310 309 310 309 310
298 298 299 300 300 300 301 301 301 302 302 302 303 304 305 305 306 305 306 306 307 308 310 310 309 313 312 306 308 306 310 308 308 310 311 310 313 311 313 313 308 312 311 309 310 312 311 308 309 307 309 310 310 309
297 298 299 299 300 300 300 301 301 301 302 302 303 304 304 305 304 305 305 306 308 309 310 309 312 312 312 310 307 307 306 308 309 308 310 312 311 309 311 311 311 310 309 313 311 311 311 308 311 307 310 309 309 309
297 298 298 299 299 300 300 300 301 301 302 302 303 303 304 303 304 304 305 306 307 308 311 312 310 312 313 312 308 306 304 305 307 308 311 310 311 309 309 309 311 309 310 311 310 312 312 310 308 309 310 310 310 309
296 297 298 299 299 299 300 300 301 301 301 302 303 303 304 303 303 304 304 306 306 308 309 311 309 311 313 313 311 310 305 306 307 309 310 310 308 308 306 307 308 307 309 312 312 310 311 312 311 309 310 310 309 310
296 297 298 298 299 299 300 300 300 301 301 302 302 301 302 302 303 304 306 306 305 307 307 309 305 309 312 313 313 311 307 306 307 307 308 307 307 308 308 307 307 307 307 308 310 308 310 310 310 310 310 309 309 309
296 297 298 298 299 299 299 300 300 301 301 302 302 301 301 302 303 305 304 306 305 306 307 306 308 305 309 311 312 308 305 307 307 306 306 306 307 307 307 310 307 308 309 308 309 308 310 309 311 308 309 309 311 310
296 297 297 298 298 299 299 299 300 301 301 302 302 301 301 302 302 304 303 304 307 307 307 305 305 306 306 306 307 306 308 307 307 306 304 305 305 304 308 307 307 307 308 308 308 307 307 305 307 307 308 308 308 308
296 296 297 297 298 298 299 299 300 301 301 300 300 301 302 301 302 303 303 303 302 304 303 302 306 308 305 306 306 306 307 309 307 308 304 304 307 308 306 305 307 306 307 310 306 306 305 307 306 304 305 305 307 306
296 296 296 297 297 298 298 299 300 301 300 300 301 298 302 302 303 303 300 299 299 300 299 304 305 307 306 306 304 306 307 308 309 305 304 306 308 307 304 304 305 306 306 303 305 304 303 304 304 303 303 306 306 306
296 296 296 297 297 298 298 299 300 300 300 300 299 299 299 303 303 302 300 301 300 301 299 304 305 307 306 309 307 307 307 308 310 308 305 304 309 308 303 303 303 303 304 306 305 306 305 305 305 305 301 302 304 304
295 296 296 296 297 297 298 299 299 299 300 300 299 299 297 300 300 302 303 301 302 305 302 307 305 306 307 307 306 306 309 308 310 304 304 306 309 305 305 305 305 304 305 305 304 305 305 305 304 304 301 301 301 304
296 296 295 297 297 298 298 299 299 300 299 299 298 298 297 299 302 304 304 304 305 305 304 306 308 306 306 307 307 307 309 310 307 305 307 306 305 307 308 307 306 305 306 306 306 306 303 302 303 301 301 302 303 302
295 295 295 295 296 296 297 299 299 300 299 299 299 299 300 300 295 296 300 302 304 305 307 306 307 307 306 307 307 309 309 307 310 308 306 304 304 306 305 307 307 307 306 305 305 305 304 304 301 302 302 303 303 302
295 299 300 300 299 298 298 299 299 299 297 298 298 299 299 299 298 303 300 301 301 304 307 307 305 307 306 307 305 307 309 309 309 308 305 305 305 306 307 302 302 301 301 301 301 301 301 300 300 301 303 304 304 304
299 300 300 300 300 300 299 299 299 298 296 298 298 299 300 301 295 302 302 303 302 304 307 306 307 307 308 307 308 308 306 307 306 305 305 305 304 303 303 303 302 301 300 300 300 300 300 301 301 301 303 303 304 304
299 300 300 301 300 299 299 295 295 296 297 298 297 297 298 298 299 299 299 302 301 304 305 304 307 309 306 308 309 305 304 305 305 305 305 305 306 304 303 302 302 301 301 300 300 300 300 302 302 301 300 301 302 303
299 299 299 299 299 299 298 295 294 296 298 298 295 298 298 298 300 301 302 300 300 302 301 304 304 308 309 308 305 304 304 305 305 305 304 305 304 303 302 301 301 301 300 299 299 299 300 299 300 299 300 301 301 301
299 299 300 299 299 297 295 294 293 298 297 297 296 297 298 298 298 299 300 299 299 298 300 301 303 306 304 302 304 304 305 305 306 305 305 303 301 301 300 300 299 299 298 298 299 299 299 300 300 300 300 300 299 299
299 299 299 299 299 295 295 294 293 297 298 296 297 298 298 299 299 298 300 300 298 299 299 299 303 305 307 304 301 303 304 304 304 305 303 300 299 299 299 299 298 297 298 298 300 300 300 299 300 300 300 299 298 298
296 295 299 297 295 294 293 295 296 293 297 298 298 298 299 298 300 300 303 300 299 297 299 301 302 303 305 304 301 300 301 303 304 305 303 301 298 298 298 297 298 299 299 299 300 301 300 299 299 300 300 299 298 298
292 293 295 296 294 295 295 294 294 298 298 299 299 297 298 296 298 299 298 301 300 298 299 300 301 303 304 304 302 300 300 301 300 301 302 301 299 299 298 298 299 299 299 299 301 300 299 300 300 300 299 298 298 298
294 293 293 292 296 296 296 296 297 298 295 299 299 299 299 294 298 299 301 301 300 299 300 300 300 303 304 304 301 300 300 301 301 300 300 299 298 298 298 298 300 299 298 298 300 300 299 300 300 299 299 298 297 297
295 294 297 296 294 294 296 298 298 296 298 295 293 293 293 294 298 300 299 298 299 300 300 300 300 302 304 303 301 301 301 300 300 299 299 299 298 298 299 299 300 301 301 300 300 299 300 300 299 298 297 297 297 296
294 296 292 292 291 292 296 294 295 298 295 297 298 298 297 301 301 298 300 298 300 301 301 301 300 301 303 304 303 301 303 301 300 299 298 299 298 297 298 299 300 300 300 299 299 299 299 299 298 297 297 297 296 295
294 295 295 289 294 296 297 298 298 298 298 300 299 297 300 301 301 301 299 298 300 301 301 302 302 301 301 301 301 301 301 302 301 299 298 299 300 300 299 299 298 297 299 300 299 299 298 298 297 297 296 296 296 295
296 296 293 294 295 296 296 296 296 295 298 295 293 300 300 301 299 299 299 298 299 300 301 301 301 302 302 302 301 302 303 302 302 301 302 300 300 300 300 300 299 299 299 299 299 298 298 297 297 297 296 296 296 296
295 296 297 297 295 295 297 298 298 299 299 296 297 298 299 301 301 301 301 300 300 301 302 302 302 302 302 301 302 302 300 300 300 300 299 299 300 300 300 300 300 300 299 299 299 298 297 298 297 296 296 296 295 295
296 295 296 297 296 296 296 297 297 296 296 297 298 299 299 299 300 300 298 299 300 299 300 301 301 303 302 303 302 301 299 298 297 297 298 298 297 298 300 299 299 299 299 299 298 298 298 297 297 296 296 296 295 295
296 295 296 295 295 295 295 294 295 295 295 296 295 296 296 295 294 298 298 297 296 297 298 300 300 301 302 301 299 297 298 299 300 300 300 300 299 299 299 299 298 299 299 298 297 297 297 297 296 296 295 294 294 294
294 294 296 296 293 293 293 292 292 293 293 294 294 295 296 295 294 297 297 296 296 296 297 298 300 301 301 301 300 299 298 299 300 301 302 302 300 299 299 298 298 298 298 298 298 297 297 296 295 295 294 294 293 293
295 296 297 295 292 289 291 293 294 294 294 294 294 293 294 294 295 294 296 295 294 295 297 299 299 301 302 302 302 301 302 301 300 301 302 302 299 299 299 298 298 298 298 297 297 297 296 296 295 294 293 293 293 293
296 296 295 293 289 292 292 293 292 292 290 292 293 294 294 295 297 295 297 296 296 296 296 298 300 302 303 303 303 303 302 303 303 302 302 302 300 301 299 298 297 297 297 297 297 296 296 295 295 294 293 293 293 292

GFSWCAN_925_thetae_129.txt.gz
Theta_e
298 298 298 297 298 298 299 299 300 300 301 301 302 302 303 303 304 303 303 302 304 306 305 304 306 307 308 310 310 309 310 309 307 310 314 310 309 307 307 307 307 307 308 307 307 311 315 309 308 310 310 308 308 307
298 298 298 297 297 298 298 299 300 300 300 301 302 302 302 303 303 303 303 301 302 305 304 305 306 306 307 309 308 307 310 309 308 310 308 308 309 304 306 308 304 309 306 308 310 311 309 308 309 307 306 308 307 306
297 298 298 297 297 297 298 299 299 300 300 301 301 302 302 302 303 303 303 302 302 305 304 305 305 305 306 307 309 307 307 308 308 306 308 309 311 305 308 306 305 305 304 307 308 308 306 308 307 307 306 308 306 306
297 297 297 297 297 297 297 298 299 299 300 301 301 301 302 302 303 303 302 302 302 302 304 302 304 305 306 307 307 309 305 304 304 306 309 310 311 306 306 308 306 305 305 305 305 307 308 307 307 307 306 307 307 306
296 297 297 296 296 296 297 298 299 299 300 300 301 301 302 302 302 301 301 302 302 303 305 304 304 307 308 308 309 309 307 306 306 307 309 310 305 305 301 305 306 303 304 309 309 308 309 309 308 305 306 307 306 306
296 296 296 296 296 297 298 298 298 299 300 300 301 301 302 301 301 301 302 301 301 303 305 306 304 305 308 310 311 309 309 307 306 306 306 305 304 306 305 306 306 304 304 307 309 308 309 309 307 305 308 306 306 305
296 296 296 296 296 297 297 298 297 299 300 300 301 301 301 300 300 301 303 302 303 303 304 304 305 304 305 310 311 311 309 309 306 306 306 305 305 305 304 306 305 304 306 306 307 307 310 309 310 305 305 306 309 306
295 295 296 296 296 297 297 297 298 299 300 300 300 301 300 299 300 301 301 302 302 303 304 304 306 306 306 311 313 311 311 310 309 307 303 305 304 303 305 305 307 305 305 305 305 306 308 307 305 306 305 304 307 307
295 295 296 296 297 297 297 298 297 297 298 298 298 298 299 300 300 300 300 300 300 304 303 302 305 307 306 307 308 310 311 311 309 309 305 306 305 307 306 305 306 305 305 306 304 304 304 306 306 306 305 305 307 308
295 295 296 296 296 297 297 298 298 298 297 298 299 299 299 300 300 300 301 303 302 294 299 304 302 307 306 304 306 307 308 307 310 310 306 309 311 308 304 303 304 306 305 305 305 304 304 305 305 305 306 306 307 308
295 295 295 296 296 296 297 297 298 297 297 299 300 298 297 298 298 300 299 300 299 298 298 301 305 306 305 308 307 306 307 307 311 311 310 306 311 310 307 304 303 302 302 304 307 305 306 307 305 304 304 305 306 305
295 295 295 295 296 296 296 297 297 297 298 299 298 298 298 296 297 299 300 300 298 302 301 304 303 306 307 306 305 305 308 307 311 304 306 307 306 307 307 308 308 307 306 304 304 306 303 305 305 305 305 303 303 305
295 295 295 296 296 296 296 297 297 297 297 298 299 298 297 298 299 301 303 301 299 303 302 306 307 307 305 303 305 305 308 310 304 306 308 304 303 305 308 308 309 309 308 308 305 302 302 302 303 302 302 302 303 303
295 295 295 295 296 296 296 296 296 297 297 296 298 299 297 299 297 299 299 299 300 303 303 306 307 308 306 307 306 307 309 305 305 306 306 302 303 305 305 307 308 308 308 308 306 304 301 300 299 300 303 303 301 300
295 295 295 295 295 296 296 296 295 297 296 298 298 298 297 296 298 299 297 299 301 303 306 307 305 306 306 306 304 307 308 310 307 307 304 302 303 304 303 302 303 306 305 306 306 300 300 299 299 299 300 301 302 302
295 295 294 294 294 295 295 296 296 296 294 296 296 297 296 298 299 302 303 304 303 306 306 306 305 306 308 307 308 309 309 308 305 303 302 302 302 302 301 300 301 301 301 300 303 303 300 300 300 300 301 301 301 302
293 295 295 297 298 297 296 296 295 295 296 297 296 296 295 297 300 302 302 303 303 306 306 304 308 307 304 307 307 303 304 302 301 300 300 300 301 302 301 300 300 300 300 299 298 298 300 300 299 297 298 297 300 301
296 295 297 300 299 298 295 295 294 295 292 295 298 295 295 296 298 299 302 301 304 304 304 305 305 307 307 307 302 302 300 300 300 300 301 301 301 301 300 299 299 298 298 297 297 297 296 297 298 299 297 298 298 299
296 297 299 297 296 296 295 292 292 295 295 294 293 294 296 297 297 297 298 298 298 300 301 301 302 306 306 303 303 301 300 300 301 301 301 300 298 298 299 298 298 297 296 296 296 297 297 298 298 298 298 299 298 297
299 298 297 296 296 291 292 294 292 290 290 294 293 295 297 298 298 296 296 296 297 297 295 299 298 300 303 301 300 300 300 299 299 300 302 302 298 297 298 298 297 296 295 295 297 298 297 297 298 299 299 299 298 297
298 298 297 297 294 292 294 295 295 295 292 294 295 296 297 297 299 301 301 295 292 294 298 296 296 296 298 299 299 300 300 298 298 300 301 303 299 296 296 295 295 296 297 296 297 299 297 297 297 299 299 298 297 297
293 296 296 296 293 292 291 290 292 295 297 296 296 296 297 296 298 299 296 296 295 296 294 295 296 296 296 297 297 298 299 298 297 297 299 300 300 298 297 296 297 297 296 296 297 297 296 297 297 297 297 296 297 297
294 294 293 292 295 291 295 295 296 293 297 298 297 291 288 292 295 296 299 296 296 294 295 295 295 295 296 296 296 297 299 299 298 297 297 298 298 298 297 297 298 297 297 296 297 297 297 298 297 297 297 296 296 296
293 294 295 293 287 295 295 295 295 296 297 298 298 291 291 290 297 301 299 295 295 294 295 295 296 295 294 295 296 297 299 299 298 297 297 297 298 298 297 297 298 299 299 298 298 298 298 297 297 297 297 296 296 295
296 294 293 292 288 292 296 296 296 297 296 297 296 292 294 297 300 298 298 295 294 295 296 295 295 296 296 296 296 297 300 300 299 299 298 297 296 296 296 297 298 299 299 298 298 298 297 297 297 297 297 296 296 295
294 294 291 289 291 292 294 296 296 296 296 297 296 293 294 298 299 297 296 294 294 294 295 296 297 296 296 297 297 298 299 301 301 299 299 299 298 298 298 298 298 297 299 299 299 298 298 297 297 297 296 296 296 294
292 295 295 293 293 293 294 294 295 295 297 292 292 297 297 298 296 296 294 294 296 295 296 296 296 297 297 296 297 300 302 302 302 301 301 300 300 300 299 298 299 299 299 300 299 299 298 297 297 297 296 296 295 295
293 295 296 296 295 293 293 295 296 296 295 294 295 297 297 296 296 296 297 298 298 299 299 298 299 298 298 298 299 300 301 302 302 301 299 298 299 299 300 300 301 301 300 300 300 299 298 298 297 296 296 295 295 295
294 295 295 295 295 294 293 296 295 294 294 294 297 297 296 294 294 297 297 298 299 298 298 298 298 299 299 299 299 300 301 299 297 298 300 299 297 297 299 300 300 299 299 299 300 300 299 298 297 297 296 295 295 295
293 294 295 295 293 294 294 292 293 292 291 292 292 293 293 293 292 297 297 297 296 296 297 297 297 298 298 297 297 296 298 300 300 300 300 300 299 300 299 299 298 298 298 299 299 298 298 297 297 296 295 294 294 294
293 294 295 295 295 292 291 289 289 290 291 292 291 293 294 294 292 296 296 296 296 295 294 295 295 297 297 298 298 297 296 297 299 300 301 301 301 300 299 298 298 298 297 298 298 297 297 296 296 294 294 294 293 293
295 295 296 296 294 288 290 292 292 292 292 292 293 291 292 293 295 293 295 294 292 293 294 294 295 295 298 299 300 300 300 301 299 299 300 301 301 299 298 298 298 297 297 297 297 297 296 296 295 294 294 293 293 292
295 295 295 296 295 292 290 291 290 289 288 289 290 291 292 294 296 293 295 294 295 294 294 295 296 297 298 299 300 301 301 302 302 301 301 300 301 301 299 298 298 297 297 297 296 296 296 295 294 294 293 293 292 292